Location: Bacharowice
(49.9333°N, 19.5833°E)
Time: 23:57:30
(UTC+00:00)

USA 215 - Pass Details

Date: 11 May 2021
Orbit: 1100 x 1107 km, 123.0° (Epoch: 14 June)

Event Time Altitude Azimuth Distance (km) Brightness Sun altitude
Exits shadow 21:26:41 - 102° (ESE) 3,430 5.6 -20.1°
Reaches altitude 10° 21:27:55 10° 100° (E) 2,957 5.2 -20.2°
Maximum altitude 21:34:21 65° 21° (NNE) 1,207 3.6 -20.5°
Drops below altitude 10° 21:40:49 10° 302° (WNW) 2,966 6.1 -20.8°
Sets 21:43:19 0° 299° (WNW) 3,925 6.8 -20.9°
